contact:dominique.lefevre@mio.osupytheas.fr, maurice.libes@osupytheas.fr, didier.mallarino@osupytheas.fr
Project:EMSO http://www.emso-fr.org/EMSO-France
Depth: 2436.0 m
Title:EMSO Ligure Ouest : Data MII capteur AQUADOPP
Date,Latitude,Longitude,X_East,Y_North,Z_Up,Amplitude_X,Amplitude_Y,Amplitude_Z,Batterie,SoundSpeed,Heading,Pitch,Roll,Pressure,TIS,Speed,Direction
, degrees North, degrees East, m.s-1, m.s-1,m.s-1, 1, 1, 1, Volt, m.s-1, degree, degree, degree, dbar, degree_C, m.s-1, degree
2019-07-23T00:01:43,42.805,6.029,0.036,0.032,-0.044,103.0,113.0,99.0,13.4,1505.3,327.1,-0.7,1.8,2470.134,13.32,0.048,48.4
2019-07-23T00:04:44,42.805,6.029,0.033,0.0,-0.003,104.0,112.0,100.0,13.4,1505.3,323.5,-0.7,1.8,2470.204,13.32,0.033,90.0
2019-07-23T00:07:45,42.805,6.029,0.03,0.008,-0.03,103.0,113.0,101.0,13.4,1505.3,323.9,-0.7,1.8,2470.205,13.32,0.031,75.1
2019-07-23T00:10:46,42.805,6.029,0.03,0.001,-0.018,104.0,112.0,101.0,13.4,1505.3,325.5,-0.8,1.8,2470.16,13.32,0.03,88.1
2019-07-23T00:13:47,42.805,6.029,0.03,0.006,-0.004,103.0,112.0,100.0,13.4,1505.3,327.2,-0.7,1.8,2470.183,13.32,0.03,78.7
2019-07-23T00:16:48,42.805,6.029,0.027,0.03,-0.028,103.0,111.0,101.0,13.3,1505.3,328.2,-0.7,1.8,2470.168,13.32,0.04,42.0
2019-07-23T00:19:49,42.805,6.029,0.046,0.006,0.027,103.0,115.0,101.0,13.4,1505.3,328.0,-0.7,1.8,2470.195,13.32,0.046,82.6
2019-07-23T00:22:50,42.805,6.029,0.018,0.02,-0.019,105.0,114.0,101.0,13.4,1505.3,326.7,-0.7,1.8,2470.201,13.32,0.026,42.0
2019-07-23T00:25:51,42.805,6.029,0.008,0.013,0.004,104.0,112.0,100.0,13.3,1505.3,328.3,-0.7,1.9,2470.164,13.32,0.015,31.6
2019-07-23T00:28:52,42.805,6.029,0.034,0.008,-0.016,102.0,115.0,100.0,13.3,1505.3,328.2,-0.7,1.8,2470.233,13.32,0.034,76.8
2019-07-23T00:31:53,42.805,6.029,0.005,0.009,-0.007,104.0,115.0,100.0,13.4,1505.3,327.3,-0.7,1.9,2470.114,13.32,0.01,29.1
2019-07-23T00:34:54,42.805,6.029,0.017,0.008,0.007,103.0,114.0,100.0,13.4,1505.3,324.5,-0.7,1.8,2470.193,13.32,0.018,64.8
2019-07-23T00:37:55,42.805,6.029,0.045,0.0,0.011,103.0,115.0,99.0,13.4,1505.3,326.5,-0.7,1.8,2470.147,13.32,0.045,90.0
2019-07-23T00:40:56,42.805,6.029,0.023,0.004,-0.03,104.0,113.0,100.0,13.3,1505.3,323.0,-0.7,1.8,2470.169,13.32,0.023,80.1
2019-07-23T00:43:57,42.805,6.029,0.029,0.0,-0.014,104.0,113.0,99.0,13.4,1505.3,323.6,-0.7,1.8,2470.155,13.32,0.028,90.0
2019-07-23T00:46:58,42.805,6.029,0.04,0.024,-0.004,105.0,116.0,100.0,13.4,1505.3,324.2,-0.8,1.9,2470.132,13.32,0.046,59.0
2019-07-23T00:49:59,42.805,6.029,0.021,0.027,-0.009,104.0,115.0,99.0,13.4,1505.3,326.5,-0.7,1.8,2470.155,13.32,0.034,37.9
2019-07-23T00:53:00,42.805,6.029,0.04,-0.008,0.001,104.0,115.0,100.0,13.3,1505.3,324.8,-0.7,1.8,2470.162,13.32,0.04,101.3
2019-07-23T00:56:01,42.805,6.029,0.041,0.0,0.003,105.0,115.0,99.0,13.4,1505.3,325.9,-0.7,1.9,2470.162,13.32,0.041,90.0
2019-07-23T00:59:02,42.805,6.029,0.01,0.008,-0.045,104.0,115.0,99.0,13.4,1505.3,326.2,-0.7,1.9,2470.202,13.32,0.012,51.3
2019-07-23T01:02:04,42.805,6.029,0.033,0.021,-0.013,104.0,112.0,100.0,13.4,1505.3,325.2,-0.7,1.8,2470.156,13.32,0.039,57.5
2019-07-23T01:05:04,42.805,6.029,0.024,0.03,-0.018,103.0,112.0,100.0,13.4,1505.3,326.4,-0.7,1.8,2470.149,13.32,0.038,38.7
2019-07-23T01:08:05,42.805,6.029,0.024,0.026,0.0,104.0,113.0,100.0,13.4,1505.3,325.5,-0.7,1.8,2470.151,13.32,0.035,42.7
2019-07-23T01:11:06,42.805,6.029,0.02,0.029,0.0,103.0,116.0,100.0,13.4,1505.3,322.9,-0.7,1.8,2470.128,13.32,0.035,34.6
2019-07-23T01:14:07,42.805,6.029,0.036,0.004,-0.007,103.0,114.0,101.0,13.4,1505.3,323.5,-0.7,1.8,2470.155,13.32,0.036,83.7
2019-07-23T01:17:08,42.805,6.029,0.035,0.016,-0.021,103.0,116.0,101.0,13.4,1505.3,323.5,-0.7,1.8,2470.183,13.32,0.038,65.4
2019-07-23T01:20:09,42.805,6.029,0.009,0.016,0.031,104.0,114.0,100.0,13.4,1505.3,323.7,-0.7,1.8,2470.172,13.32,0.018,29.4
2019-07-23T01:23:10,42.805,6.029,0.025,0.002,-0.03,104.0,115.0,100.0,13.4,1505.3,323.0,-0.7,1.8,2470.122,13.32,0.025,85.4
2019-07-23T01:26:11,42.805,6.029,0.04,0.011,-0.003,102.0,114.0,100.0,13.3,1505.3,322.9,-0.7,1.8,2470.172,13.32,0.041,74.6
2019-07-23T01:29:12,42.805,6.029,0.0,0.026,-0.023,102.0,112.0,99.0,13.3,1505.3,324.3,-0.7,1.8,2470.161,13.32,0.026,0.0
2019-07-23T01:32:13,42.805,6.029,0.026,0.023,0.006,105.0,114.0,100.0,13.4,1505.3,323.6,-0.7,1.8,2470.119,13.32,0.034,48.5
2019-07-23T01:35:14,42.805,6.029,0.032,0.008,-0.002,103.0,113.0,100.0,13.4,1505.3,323.5,-0.7,1.8,2470.148,13.32,0.032,76.0
2019-07-23T01:38:15,42.805,6.029,0.017,-0.015,-0.037,104.0,114.0,101.0,13.4,1505.3,326.6,-0.7,1.8,2470.126,13.32,0.022,131.4
2019-07-23T01:41:16,42.805,6.029,0.039,0.013,-0.028,103.0,113.0,101.0,13.4,1505.3,325.0,-0.7,1.9,2470.14,13.32,0.041,71.6
2019-07-23T01:44:17,42.805,6.029,0.043,0.024,0.019,103.0,114.0,101.0,13.4,1505.3,326.4,-0.7,1.9,2470.141,13.32,0.049,60.8
2019-07-23T01:47:18,42.805,6.029,0.029,0.017,-0.041,103.0,115.0,100.0,13.3,1505.3,326.8,-0.7,1.8,2470.149,13.32,0.033,59.6
2019-07-23T01:50:19,42.805,6.029,0.018,-0.004,-0.004,102.0,115.0,100.0,13.4,1505.3,323.1,-0.7,1.9,2470.174,13.32,0.018,102.5
2019-07-23T01:53:20,42.805,6.029,0.034,0.005,0.002,103.0,114.0,99.0,13.4,1505.3,326.9,-0.7,1.8,2470.116,13.32,0.034,81.6
2019-07-23T01:56:21,42.805,6.029,0.041,0.015,0.001,104.0,114.0,99.0,13.4,1505.3,328.2,-0.7,1.8,2470.086,13.32,0.043,69.9
2019-07-23T01:59:22,42.805,6.029,0.005,0.037,-0.018,103.0,115.0,101.0,13.4,1505.3,326.7,-0.7,1.8,2470.13,13.32,0.037,7.7
2019-07-23T02:02:23,42.805,6.029,0.042,0.006,0.019,103.0,114.0,99.0,13.4,1505.3,324.2,-0.7,1.9,2470.111,13.32,0.042,81.9
2019-07-23T02:05:24,42.805,6.029,0.039,0.024,-0.017,102.0,113.0,98.0,13.4,1505.3,324.5,-0.7,1.8,2470.125,13.32,0.045,58.4
2019-07-23T02:08:25,42.805,6.029,0.022,0.015,-0.013,103.0,116.0,100.0,13.3,1505.3,325.0,-0.7,1.8,2470.071,13.32,0.026,55.7
2019-07-23T02:11:26,42.805,6.029,0.016,0.001,-0.025,101.0,113.0,99.0,13.4,1505.3,324.8,-0.7,1.8,2470.141,13.32,0.016,86.4
2019-07-23T02:14:27,42.805,6.029,0.021,0.009,-0.015,102.0,113.0,100.0,13.4,1505.3,326.9,-0.7,1.9,2470.137,13.32,0.022,66.8
2019-07-23T02:17:28,42.805,6.029,0.057,-0.003,0.004,102.0,116.0,99.0,13.3,1505.3,326.8,-0.7,1.8,2470.102,13.32,0.057,93.0
2019-07-23T02:20:29,42.805,6.029,-0.013,0.013,0.001,102.0,114.0,100.0,13.4,1505.3,326.0,-0.7,1.8,2470.102,13.32,0.018,315.0
2019-07-23T02:23:30,42.805,6.029,0.001,0.001,-0.002,102.0,113.0,99.0,13.3,1505.3,324.6,-0.7,1.8,2470.102,13.32,0.001,45.0
2019-07-23T02:26:31,42.805,6.029,0.022,0.015,-0.002,102.0,114.0,100.0,13.3,1505.3,327.3,-0.7,1.8,2470.078,13.32,0.026,55.7
2019-07-23T02:29:32,42.805,6.029,0.026,0.014,0.0,103.0,117.0,100.0,13.3,1505.3,327.0,-0.7,1.8,2470.116,13.32,0.029,61.7
2019-07-23T02:32:33,42.805,6.029,0.033,0.016,-0.013,103.0,115.0,99.0,13.4,1505.3,327.9,-0.7,1.9,2470.134,13.32,0.036,64.1
2019-07-23T02:35:34,42.805,6.029,0.026,0.012,-0.013,103.0,115.0,99.0,13.3,1505.3,324.1,-0.7,1.9,2470.128,13.32,0.028,65.2
2019-07-23T02:38:35,42.805,6.029,0.021,0.022,-0.037,103.0,115.0,100.0,13.3,1505.3,327.6,-0.7,1.8,2470.09,13.32,0.03,43.7
2019-07-23T02:41:36,42.805,6.029,0.046,0.015,-0.026,102.0,114.0,99.0,13.3,1505.3,328.4,-0.7,1.8,2470.089,13.32,0.048,71.9
2019-07-23T02:44:37,42.805,6.029,0.022,0.004,-0.01,103.0,114.0,100.0,13.3,1505.3,327.1,-0.8,1.8,2470.072,13.32,0.022,79.7
2019-07-23T02:47:38,42.805,6.029,0.047,0.018,-0.01,102.0,114.0,99.0,13.4,1505.3,328.1,-0.7,1.8,2470.088,13.32,0.05,69.0
2019-07-23T02:50:39,42.805,6.029,0.027,0.012,0.002,102.0,113.0,100.0,13.3,1505.3,328.2,-0.7,1.8,2470.101,13.32,0.029,66.0
2019-07-23T02:53:40,42.805,6.029,0.026,0.004,-0.005,103.0,116.0,98.0,13.3,1505.3,325.6,-0.7,1.9,2470.104,13.32,0.026,81.3
2019-07-23T02:56:41,42.805,6.029,0.026,0.026,0.001,103.0,113.0,100.0,13.3,1505.3,327.1,-0.7,1.8,2470.065,13.32,0.036,45.0
2019-07-23T02:59:42,42.805,6.029,0.034,0.023,0.015,103.0,113.0,99.0,13.4,1505.3,327.6,-0.7,1.8,2470.11,13.32,0.041,55.9
2019-07-23T03:02:43,42.805,6.029,0.019,0.013,-0.005,103.0,114.0,100.0,13.4,1505.3,328.2,-0.7,1.8,2470.128,13.32,0.023,55.6
2019-07-23T03:05:44,42.805,6.029,0.015,0.014,-0.019,103.0,115.0,99.0,13.3,1505.3,325.9,-0.7,1.8,2470.103,13.32,0.02,47.0
2019-07-23T03:08:45,42.805,6.029,0.038,0.005,-0.044,104.0,115.0,100.0,13.4,1505.3,324.3,-0.7,1.8,2470.088,13.32,0.038,82.5
2019-07-23T03:11:46,42.805,6.029,0.009,0.003,-0.043,103.0,116.0,98.0,13.4,1505.3,327.7,-0.7,1.8,2470.078,13.32,0.009,71.6
2019-07-23T03:14:47,42.805,6.029,0.023,-0.004,0.004,104.0,115.0,99.0,13.3,1505.3,327.7,-0.7,1.8,2470.1,13.32,0.023,99.9
2019-07-23T03:17:48,42.805,6.029,0.021,0.018,0.001,103.0,115.0,99.0,13.3,1505.3,325.5,-0.7,1.8,2470.048,13.32,0.027,49.4
2019-07-23T03:20:49,42.805,6.029,0.033,0.001,-0.02,103.0,111.0,99.0,13.4,1505.3,323.8,-0.7,1.9,2470.122,13.32,0.033,88.3
2019-07-23T03:23:50,42.805,6.029,0.029,-0.004,-0.017,103.0,114.0,101.0,13.3,1505.3,323.4,-0.7,1.8,2470.136,13.32,0.029,97.8
2019-07-23T03:26:51,42.805,6.029,0.037,-0.004,-0.011,102.0,113.0,100.0,13.4,1505.3,324.8,-0.7,1.9,2470.066,13.32,0.037,96.2
2019-07-23T03:29:52,42.805,6.029,0.058,0.008,0.021,103.0,114.0,99.0,13.4,1505.3,325.1,-0.7,1.8,2470.043,13.32,0.058,82.2
2019-07-23T03:32:53,42.805,6.029,0.031,-0.002,0.003,104.0,114.0,99.0,13.3,1505.3,323.8,-0.7,1.8,2470.029,13.32,0.031,93.7
2019-07-23T03:35:54,42.805,6.029,0.022,0.019,-0.025,103.0,114.0,100.0,13.4,1505.3,324.3,-0.7,1.8,2470.063,13.32,0.029,49.2
2019-07-23T03:38:55,42.805,6.029,0.027,0.013,-0.005,102.0,112.0,101.0,13.4,1505.3,323.2,-0.7,1.8,2470.046,13.32,0.029,64.3
2019-07-23T03:41:56,42.805,6.029,0.023,0.013,0.035,104.0,115.0,100.0,13.4,1505.3,328.4,-0.7,1.8,2470.077,13.32,0.026,60.5
2019-07-23T03:44:57,42.805,6.029,0.043,0.019,0.015,102.0,115.0,100.0,13.4,1505.3,326.0,-0.7,1.8,2470.061,13.32,0.047,66.2
2019-07-23T03:47:58,42.805,6.029,0.047,0.012,0.038,103.0,112.0,99.0,13.4,1505.3,323.3,-0.7,1.8,2470.064,13.32,0.048,75.7
2019-07-23T03:50:59,42.805,6.029,0.03,0.014,-0.01,103.0,114.0,100.0,13.4,1505.3,325.6,-0.7,1.8,2470.114,13.32,0.033,65.0
2019-07-23T03:54:00,42.805,6.029,0.022,0.011,0.0,102.0,115.0,98.0,13.4,1505.3,323.3,-0.7,1.8,2470.083,13.32,0.024,63.4
2019-07-23T03:57:01,42.805,6.029,0.038,0.007,-0.001,104.0,114.0,98.0,13.3,1505.3,325.0,-0.7,1.9,2470.057,13.32,0.038,79.6
2019-07-23T04:00:02,42.805,6.029,0.016,-0.002,-0.004,103.0,114.0,99.0,13.4,1505.3,325.8,-0.7,1.8,2470.05,13.32,0.016,97.1
2019-07-23T04:03:03,42.805,6.029,0.035,0.0,0.0,103.0,114.0,99.0,13.4,1505.3,325.2,-0.7,1.8,2470.093,13.32,0.035,90.0
2019-07-23T04:06:04,42.805,6.029,0.045,0.021,0.005,102.0,114.0,100.0,13.4,1505.3,325.7,-0.7,1.9,2470.075,13.32,0.049,65.0
2019-07-23T04:09:05,42.805,6.029,0.019,0.005,-0.018,104.0,114.0,100.0,13.4,1505.3,327.8,-0.7,1.8,2470.041,13.32,0.019,75.3
2019-07-23T04:12:06,42.805,6.029,0.042,0.0,-0.023,104.0,113.0,100.0,13.4,1505.3,327.7,-0.8,1.9,2470.031,13.32,0.042,90.0
2019-07-23T04:15:07,42.805,6.029,0.018,0.023,0.041,103.0,111.0,100.0,13.4,1505.3,326.0,-0.7,1.8,2470.077,13.32,0.029,38.0
2019-07-23T04:18:08,42.805,6.029,0.033,0.019,-0.003,103.0,112.0,99.0,13.4,1505.3,325.5,-0.7,1.8,2470.049,13.32,0.038,60.1
2019-07-23T04:21:09,42.805,6.029,0.04,0.011,0.017,102.0,112.0,101.0,13.3,1505.3,324.2,-0.7,1.8,2470.046,13.32,0.041,74.6
2019-07-23T04:24:10,42.805,6.029,0.035,0.028,0.004,105.0,112.0,100.0,13.3,1505.3,322.9,-0.8,1.8,2470.025,13.32,0.044,51.3
2019-07-23T04:27:11,42.805,6.029,0.028,0.025,0.03,105.0,114.0,100.0,13.3,1505.3,323.3,-0.7,1.9,2470.021,13.32,0.037,48.2
2019-07-23T04:30:12,42.805,6.029,0.024,0.035,-0.005,104.0,115.0,100.0,13.3,1505.3,323.9,-0.7,1.9,2470.055,13.32,0.042,34.4
2019-07-23T04:33:13,42.805,6.029,0.042,-0.001,0.006,104.0,113.0,100.0,13.3,1505.3,325.7,-0.7,1.8,2470.037,13.32,0.042,91.4
2019-07-23T04:36:14,42.805,6.029,0.049,0.015,0.006,103.0,113.0,99.0,13.4,1505.3,324.1,-0.7,1.8,2470.009,13.32,0.051,73.0
2019-07-23T04:39:15,42.805,6.029,0.04,0.002,-0.019,104.0,113.0,100.0,13.3,1505.3,322.8,-0.7,1.8,2470.089,13.32,0.04,87.1
2019-07-23T04:42:16,42.805,6.029,0.008,-0.011,-0.014,103.0,115.0,99.0,13.3,1505.3,324.2,-0.7,1.8,2470.035,13.32,0.013,144.0
2019-07-23T04:45:17,42.805,6.029,0.028,0.006,-0.01,103.0,113.0,100.0,13.3,1505.3,324.9,-0.7,1.9,2470.101,13.32,0.028,77.9
2019-07-23T04:48:18,42.805,6.029,0.013,0.007,-0.047,103.0,113.0,99.0,13.4,1505.3,326.2,-0.7,1.8,2470.099,13.32,0.014,61.7
2019-07-23T04:51:19,42.805,6.029,0.019,0.008,-0.005,104.0,113.0,101.0,13.4,1505.3,324.3,-0.7,1.9,2470.042,13.32,0.02,67.2
2019-07-23T04:54:20,42.805,6.029,0.03,0.021,0.001,103.0,112.0,100.0,13.3,1505.3,322.6,-0.7,1.8,2470.038,13.32,0.036,55.0
2019-07-23T04:57:21,42.805,6.029,0.029,0.016,0.002,104.0,114.0,99.0,13.4,1505.3,323.5,-0.7,1.8,2470.019,13.32,0.033,61.1
2019-07-23T05:00:22,42.805,6.029,0.023,0.008,-0.009,103.0,114.0,99.0,13.3,1505.3,325.1,-0.7,1.8,2470.025,13.32,0.024,70.8
2019-07-23T05:03:23,42.805,6.029,0.032,0.011,-0.028,103.0,112.0,98.0,13.4,1505.3,323.1,-0.7,1.8,2470.078,13.32,0.033,71.0
2019-07-23T05:06:24,42.805,6.029,0.006,0.007,-0.018,103.0,115.0,99.0,13.4,1505.3,325.7,-0.7,1.8,2470.078,13.32,0.009,40.6
2019-07-23T05:09:25,42.805,6.029,0.021,0.009,-0.05,102.0,114.0,100.0,13.4,1505.3,325.2,-0.7,1.8,2470.051,13.32,0.022,66.8
2019-07-23T05:12:26,42.805,6.029,0.022,0.0,-0.02,100.0,114.0,100.0,13.4,1505.3,326.0,-0.7,1.8,2470.106,13.32,0.022,90.0
2019-07-23T05:15:27,42.805,6.029,0.022,0.014,-0.021,103.0,113.0,99.0,13.4,1505.3,327.0,-0.7,1.9,2470.046,13.32,0.026,57.5
2019-07-23T05:18:28,42.805,6.029,0.021,0.003,-0.04,103.0,112.0,98.0,13.4,1505.3,326.6,-0.7,1.8,2470.049,13.32,0.021,81.9
2019-07-23T05:21:29,42.805,6.029,0.013,0.017,-0.017,103.0,113.0,99.0,13.4,1505.3,326.2,-0.7,1.9,2470.094,13.32,0.021,37.4
2019-07-23T05:24:30,42.805,6.029,0.032,0.036,-0.023,103.0,110.0,98.0,13.3,1505.3,326.4,-0.8,1.8,2470.056,13.32,0.048,41.6
2019-07-23T05:27:31,42.805,6.029,0.014,0.014,-0.002,103.0,115.0,99.0,13.4,1505.3,325.1,-0.8,1.8,2470.018,13.32,0.019,45.0
2019-07-23T05:30:32,42.805,6.029,0.039,0.009,-0.003,104.0,115.0,99.0,13.4,1505.3,326.8,-0.7,1.9,2470.006,13.32,0.04,77.0
2019-07-23T05:33:33,42.805,6.029,0.017,-0.008,-0.028,102.0,114.0,98.0,13.3,1505.3,327.4,-0.7,1.8,2470.085,13.32,0.018,115.2
2019-07-23T05:36:34,42.805,6.029,0.031,-0.002,0.023,104.0,115.0,99.0,13.4,1505.3,328.0,-0.7,1.9,2470.044,13.32,0.031,93.7
2019-07-23T05:39:35,42.805,6.029,0.021,0.009,-0.012,103.0,114.0,99.0,13.3,1505.3,328.2,-0.8,1.8,2470.044,13.32,0.022,66.8
2019-07-23T05:42:36,42.805,6.029,0.032,-0.029,-0.016,103.0,114.0,99.0,13.4,1505.3,325.3,-0.7,1.8,2470.064,13.32,0.043,132.2
2019-07-23T05:45:37,42.805,6.029,0.039,0.006,0.019,102.0,114.0,100.0,13.3,1505.3,324.8,-0.7,1.8,2470.063,13.32,0.039,81.3
2019-07-23T05:48:38,42.805,6.029,0.015,-0.002,0.012,102.0,114.0,99.0,13.3,1505.3,326.8,-0.7,1.8,2470.013,13.32,0.015,97.6
2019-07-23T05:51:39,42.805,6.029,0.04,-0.002,-0.023,103.0,114.0,99.0,13.4,1505.3,323.9,-0.7,1.8,2470.033,13.32,0.04,92.9
2019-07-23T05:54:40,42.805,6.029,0.011,0.0,-0.018,102.0,113.0,101.0,13.3,1505.3,324.5,-0.7,1.8,2470.048,13.32,0.011,90.0
2019-07-23T05:57:41,42.805,6.029,0.022,0.014,-0.022,102.0,112.0,100.0,13.4,1505.3,326.5,-0.7,1.9,2469.968,13.32,0.026,57.5
2019-07-23T06:00:42,42.805,6.029,0.054,0.021,0.006,102.0,113.0,99.0,13.3,1505.3,324.6,-0.7,1.8,2470.074,13.32,0.057,68.8
2019-07-23T06:03:44,42.805,6.029,0.042,0.004,0.02,104.0,114.0,99.0,13.4,1505.3,324.0,-0.7,1.9,2470.03,13.32,0.042,84.6
2019-07-23T06:06:44,42.805,6.029,0.03,-0.004,-0.022,102.0,113.0,99.0,13.4,1505.3,324.8,-0.7,1.9,2470.013,13.32,0.03,97.6
2019-07-23T06:09:45,42.805,6.029,0.026,0.015,-0.015,103.0,113.0,100.0,13.4,1505.3,324.8,-0.7,1.8,2470.046,13.32,0.03,60.0
2019-07-23T06:12:46,42.805,6.029,0.001,0.009,-0.048,102.0,112.0,100.0,13.3,1505.3,325.1,-0.8,1.9,2470.029,13.32,0.009,6.3
2019-07-23T06:15:47,42.805,6.029,0.04,0.0,0.003,101.0,114.0,99.0,13.3,1505.3,326.8,-0.7,1.8,2470.055,13.32,0.04,90.0
2019-07-23T06:18:48,42.805,6.029,0.041,-0.003,-0.027,101.0,113.0,99.0,13.4,1505.3,326.5,-0.7,1.8,2470.088,13.32,0.041,94.2
2019-07-23T06:21:49,42.805,6.029,0.027,0.007,-0.015,102.0,113.0,99.0,13.4,1505.3,326.4,-0.7,1.9,2470.02,13.32,0.027,75.5
2019-07-23T06:24:50,42.805,6.029,0.054,0.015,0.003,103.0,113.0,100.0,13.3,1505.3,325.0,-0.7,1.8,2470.014,13.32,0.056,74.5
2019-07-23T06:27:51,42.805,6.029,0.023,0.027,-0.011,103.0,115.0,100.0,13.4,1505.3,325.5,-0.7,1.9,2470.054,13.32,0.035,40.4
2019-07-23T06:30:52,42.805,6.029,0.03,0.003,-0.05,102.0,113.0,99.0,13.3,1505.3,325.1,-0.7,1.8,2470.046,13.32,0.03,84.3
2019-07-23T06:33:53,42.805,6.029,0.027,0.01,-0.01,102.0,114.0,100.0,13.4,1505.3,323.0,-0.7,1.9,2470.016,13.32,0.028,69.7
2019-07-23T06:36:54,42.805,6.029,0.033,0.016,-0.048,104.0,114.0,99.0,13.4,1505.3,325.3,-0.7,1.9,2470.052,13.32,0.036,64.1
2019-07-23T06:39:55,42.805,6.029,0.031,-0.004,-0.025,103.0,113.0,99.0,13.4,1505.3,325.1,-0.8,1.8,2470.037,13.32,0.031,97.3
2019-07-23T06:42:56,42.805,6.029,0.029,0.033,-0.013,104.0,114.0,99.0,13.4,1505.3,324.4,-0.7,1.8,2470.033,13.32,0.043,41.3
2019-07-23T06:45:57,42.805,6.029,0.006,0.007,0.014,103.0,113.0,98.0,13.4,1505.3,323.9,-0.7,1.8,2470.026,13.32,0.009,40.6
2019-07-23T06:48:58,42.805,6.029,0.023,0.014,-0.039,102.0,115.0,99.0,13.3,1505.3,327.7,-0.7,1.9,2470.083,13.32,0.026,58.7
2019-07-23T06:51:59,42.805,6.029,0.02,0.014,-0.004,103.0,114.0,99.0,13.4,1505.3,324.2,-0.7,1.9,2470.019,13.32,0.024,55.0
2019-07-23T06:55:00,42.805,6.029,0.037,0.011,0.007,103.0,114.0,98.0,13.4,1505.3,323.7,-0.7,1.8,2470.037,13.32,0.038,73.4
2019-07-23T06:58:01,42.805,6.029,0.013,0.011,-0.032,103.0,115.0,99.0,13.4,1505.3,324.3,-0.7,1.9,2470.039,13.32,0.017,49.8
2019-07-23T07:01:02,42.805,6.029,0.031,0.018,-0.034,103.0,114.0,99.0,13.4,1505.3,323.8,-0.8,1.8,2470.051,13.32,0.035,59.9
2019-07-23T07:04:03,42.805,6.029,0.028,0.014,-0.039,102.0,114.0,98.0,13.3,1505.3,326.5,-0.8,1.8,2470.062,13.32,0.031,63.4
2019-07-23T07:07:04,42.805,6.029,0.018,0.019,-0.026,103.0,116.0,99.0,13.4,1505.3,324.9,-0.7,1.8,2470.018,13.32,0.026,43.5
2019-07-23T07:10:05,42.805,6.029,0.04,0.015,0.001,103.0,114.0,99.0,13.3,1505.3,327.0,-0.7,1.8,2470.032,13.32,0.042,69.4
2019-07-23T07:13:06,42.805,6.029,0.071,0.008,0.004,103.0,114.0,99.0,13.3,1505.3,325.2,-0.7,1.8,2470.035,13.32,0.071,83.6
2019-07-23T07:16:07,42.805,6.029,0.009,0.005,-0.008,102.0,114.0,98.0,13.4,1505.3,325.6,-0.7,1.8,2470.038,13.32,0.01,60.9
2019-07-23T07:19:08,42.805,6.029,0.022,0.012,-0.008,103.0,113.0,100.0,13.4,1505.3,323.5,-0.7,1.9,2470.049,13.32,0.025,61.4
2019-07-23T07:22:09,42.805,6.029,0.033,0.011,-0.024,103.0,114.0,99.0,13.4,1505.3,325.3,-0.7,1.9,2470.089,13.32,0.034,71.6
2019-07-23T07:25:10,42.805,6.029,0.027,0.02,-0.018,103.0,114.0,99.0,13.3,1505.3,323.5,-0.8,1.9,2470.06,13.32,0.033,53.5
2019-07-23T07:28:11,42.805,6.029,0.027,0.013,-0.005,104.0,115.0,99.0,13.4,1505.3,326.6,-0.7,1.8,2470.053,13.32,0.029,64.3
2019-07-23T07:31:12,42.805,6.029,0.026,0.004,-0.036,104.0,115.0,101.0,13.3,1505.3,326.8,-0.7,1.9,2470.054,13.32,0.026,81.3
2019-07-23T07:34:14,42.805,6.029,0.024,0.012,-0.006,102.0,115.0,99.0,13.4,1505.3,326.9,-0.7,1.8,2470.073,13.32,0.026,63.4
2019-07-23T07:37:14,42.805,6.029,0.04,0.034,-0.007,104.0,117.0,100.0,13.4,1505.3,327.0,-0.7,1.8,2470.033,13.32,0.052,49.6
2019-07-23T07:40:15,42.805,6.029,0.023,0.018,-0.016,103.0,116.0,98.0,13.4,1505.3,325.3,-0.7,1.8,2470.09,13.32,0.029,52.0
2019-07-23T07:43:16,42.805,6.029,0.014,0.018,-0.001,102.0,114.0,99.0,13.4,1505.3,326.5,-0.7,1.8,2470.036,13.32,0.022,37.9
2019-07-23T07:46:17,42.805,6.029,0.018,0.026,-0.007,103.0,115.0,99.0,13.4,1505.3,324.5,-0.7,1.8,2470.072,13.32,0.031,34.7
2019-07-23T07:49:18,42.805,6.029,0.024,0.028,0.025,103.0,116.0,100.0,13.4,1505.3,325.2,-0.7,1.8,2470.079,13.32,0.036,40.6
2019-07-23T07:52:19,42.805,6.029,0.009,0.005,-0.028,102.0,115.0,99.0,13.4,1505.3,328.1,-0.7,1.8,2470.078,13.32,0.01,60.9
2019-07-23T07:55:20,42.805,6.029,0.031,-0.006,-0.009,102.0,115.0,100.0,13.3,1505.3,324.4,-0.7,1.9,2470.066,13.32,0.031,101.0
2019-07-23T07:58:21,42.805,6.029,0.016,-0.005,-0.027,103.0,114.0,100.0,13.4,1505.3,326.7,-0.7,1.9,2470.026,13.32,0.016,107.4
2019-07-23T08:01:22,42.805,6.029,0.021,0.022,-0.009,105.0,113.0,100.0,13.4,1505.3,324.8,-0.7,1.9,2470.035,13.32,0.03,43.7
2019-07-23T08:04:23,42.805,6.029,0.02,0.021,-0.017,103.0,115.0,100.0,13.4,1505.3,325.1,-0.7,1.9,2470.076,13.32,0.028,43.6
2019-07-23T08:07:24,42.805,6.029,0.026,0.041,0.002,103.0,114.0,101.0,13.3,1505.3,326.9,-0.7,1.8,2470.047,13.32,0.048,32.4
2019-07-23T08:10:25,42.805,6.029,0.033,0.02,-0.01,103.0,112.0,99.0,13.4,1505.3,325.8,-0.7,1.8,2470.048,13.32,0.038,58.8
2019-07-23T08:13:26,42.805,6.029,0.033,0.013,-0.015,103.0,115.0,101.0,13.4,1505.3,325.5,-0.7,1.8,2470.038,13.32,0.035,68.5
2019-07-23T08:16:27,42.805,6.029,0.011,0.021,-0.045,104.0,114.0,100.0,13.4,1505.3,325.5,-0.7,1.8,2470.063,13.32,0.023,27.6
2019-07-23T08:19:28,42.805,6.029,0.026,0.027,-0.009,104.0,116.0,100.0,13.4,1505.3,323.3,-0.7,1.9,2470.086,13.32,0.037,43.9
2019-07-23T08:22:29,42.805,6.029,0.027,0.016,-0.042,102.0,115.0,99.0,13.4,1505.3,326.1,-0.7,1.8,2470.066,13.32,0.031,59.3
2019-07-23T08:25:30,42.805,6.029,0.022,0.016,-0.008,104.0,114.0,98.0,13.3,1505.3,325.0,-0.7,1.8,2470.064,13.32,0.027,54.0
2019-07-23T08:28:31,42.805,6.029,0.024,0.014,-0.021,103.0,117.0,99.0,13.3,1505.3,326.0,-0.7,1.8,2470.051,13.32,0.027,59.7
2019-07-23T08:31:32,42.805,6.029,-0.012,0.015,-0.047,104.0,114.0,100.0,13.3,1505.3,325.9,-0.8,1.8,2470.063,13.32,0.019,321.3
2019-07-23T08:34:33,42.805,6.029,0.024,0.02,-0.008,104.0,115.0,99.0,13.4,1505.3,326.4,-0.7,1.8,2470.024,13.32,0.031,50.2
2019-07-23T08:37:34,42.805,6.029,0.049,0.012,0.014,103.0,114.0,100.0,13.3,1505.3,323.2,-0.7,1.8,2470.068,13.32,0.05,76.2
2019-07-23T08:40:35,42.805,6.029,0.014,-0.008,-0.011,103.0,113.0,100.0,13.4,1505.3,323.3,-0.7,1.8,2470.117,13.32,0.016,119.7
2019-07-23T08:43:36,42.805,6.029,0.034,0.028,-0.001,104.0,114.0,100.0,13.4,1505.3,323.5,-0.8,1.8,2470.084,13.32,0.044,50.5
2019-07-23T08:46:37,42.805,6.029,0.024,0.026,0.016,103.0,115.0,100.0,13.4,1505.3,324.7,-0.7,1.8,2470.052,13.32,0.035,42.7
2019-07-23T08:49:38,42.805,6.029,0.038,0.003,-0.011,102.0,116.0,100.0,13.4,1505.3,326.8,-0.7,1.8,2470.083,13.32,0.038,85.5
2019-07-23T08:52:39,42.805,6.029,0.008,0.034,-0.033,102.0,116.0,99.0,13.4,1505.3,327.0,-0.7,1.8,2470.134,13.32,0.034,13.2
2019-07-23T08:55:40,42.805,6.029,0.033,0.03,-0.015,102.0,116.0,101.0,13.4,1505.3,327.8,-0.7,1.8,2470.088,13.32,0.044,47.7
2019-07-23T08:58:41,42.805,6.029,0.03,0.0,-0.01,104.0,116.0,101.0,13.4,1505.3,327.7,-0.7,1.8,2470.101,13.32,0.03,90.0
2019-07-23T09:01:42,42.805,6.029,0.023,0.021,-0.001,102.0,116.0,99.0,13.3,1505.3,327.2,-0.8,1.8,2470.1,13.32,0.031,47.6
2019-07-23T09:04:43,42.805,6.029,0.004,0.026,0.009,103.0,119.0,99.0,13.4,1505.3,323.2,-0.7,1.8,2470.055,13.32,0.026,8.7
2019-07-23T09:07:44,42.805,6.029,0.0,0.007,-0.033,102.0,118.0,100.0,13.3,1505.3,324.7,-0.7,1.8,2470.093,13.32,0.007,0.0
2019-07-23T09:10:45,42.805,6.029,0.03,0.022,-0.014,103.0,114.0,100.0,13.4,1505.3,325.9,-0.7,1.8,2470.087,13.32,0.037,53.7
2019-07-23T09:13:46,42.805,6.029,0.032,0.02,-0.026,103.0,116.0,100.0,13.4,1505.3,325.6,-0.7,1.9,2470.094,13.32,0.037,58.0
2019-07-23T09:16:47,42.805,6.029,0.034,0.014,0.012,103.0,115.0,99.0,13.4,1505.3,325.5,-0.7,1.8,2470.093,13.32,0.036,67.6
2019-07-23T09:19:48,42.805,6.029,0.02,0.018,-0.015,103.0,114.0,100.0,13.4,1505.3,324.9,-0.7,1.8,2470.056,13.32,0.026,48.0
2019-07-23T09:22:50,42.805,6.029,0.015,0.013,0.0,104.0,116.0,100.0,13.3,1505.3,324.4,-0.7,1.8,2470.112,13.32,0.019,49.1
2019-07-23T09:25:50,42.805,6.029,0.031,0.01,-0.007,104.0,118.0,99.0,13.3,1505.3,326.1,-0.8,1.8,2470.129,13.32,0.032,72.1
2019-07-23T09:28:51,42.805,6.029,0.019,0.012,0.023,102.0,117.0,100.0,13.4,1505.3,327.4,-0.7,1.8,2470.086,13.32,0.022,57.7
2019-07-23T09:31:52,42.805,6.029,0.027,0.003,-0.028,103.0,118.0,99.0,13.4,1505.3,323.6,-0.6,1.8,2470.128,13.32,0.027,83.7
2019-07-23T09:34:53,42.805,6.029,0.013,0.002,-0.028,103.0,116.0,100.0,13.4,1505.3,323.3,-0.7,1.8,2470.111,13.32,0.013,81.3
2019-07-23T09:37:54,42.805,6.029,0.009,0.015,-0.026,104.0,116.0,99.0,13.4,1505.3,324.7,-0.7,1.9,2470.086,13.32,0.017,31.0
2019-07-23T09:40:55,42.805,6.029,0.028,0.044,-0.002,102.0,117.0,99.0,13.4,1505.3,322.9,-0.7,1.8,2470.115,13.32,0.052,32.5